• En España
  • Lista de países
  • Para 7 días
  • Temperatura del agua
  • Mapa Satelital
  • El tiempo en el mapa
  • Informadores
  • user-avatar
    Iniciar sesión

    Tiempo cada hora Myaskovo

    Hoy, 21 Abril, Sábado

    Tiempo Temperatura Precipitaciones Viento Presión Humedad
    00:00 +9°C° 0 mm 3 mps 731 mmHg 80%
    01:00 +8°C° 0 mm 4 mps 730 mmHg 84%
    02:00 +9°C° 0 mm 3 mps 729 mmHg 88%
    03:00 +9°C° 0 mm 3 mps 728 mmHg 90%
    04:00 +8°C° 0 mm 4 mps 728 mmHg 92%
    05:00 +8°C° 0 mm 4 mps 727 mmHg 93%
    06:00 +10°C° 0 mm 4 mps 726 mmHg 88%
    07:00 +10°C° 0 mm 5 mps 725 mmHg 84%
    08:00 +12°C° 0 mm 5 mps 723 mmHg 76%
    09:00 +13°C° 0 mm 6 mps 722 mmHg 71%
    10:00 +15°C° 0 mm 6 mps 721 mmHg 66%
    11:00 +16°C° 0 mm 7 mps 720 mmHg 61%
    12:00 +15°C° 0,8 mm 7 mps 720 mmHg 62%
    13:00 +13°C° 0,8 mm 8 mps 719 mmHg 63%
    14:00 +13°C° 0,8 mm 8 mps 718 mmHg 65%
    15:00 +11°C° 0,3 mm 8 mps 719 mmHg 65%
    16:00 +8°C° 0,3 mm 9 mps 719 mmHg 66%
    17:00 +7°C° 0,3 mm 9 mps 719 mmHg 67%
    18:00 +6°C° 0,2 mm 9 mps 720 mmHg 69%
    19:00 +5°C° 0,2 mm 9 mps 720 mmHg 72%
    20:00 +3°C° 0,2 mm 9 mps 721 mmHg 74%
    21:00 +2°C° 0,1 mm 8 mps 721 mmHg 75%
    22:00 +2°C° 0,1 mm 8 mps 722 mmHg 76%
    23:00 +3°C° 0,1 mm 7 mps 722 mmHg 76%

    Mañana, 22 Abril, Domingo

    Tiempo Temperatura Precipitaciones Viento Presión Humedad
    00:00 +2°C° 0 mm 7 mps 723 mmHg 77%
    01:00 +2°C° 0 mm 6 mps 724 mmHg 78%
    02:00 +2°C° 0 mm 6 mps 725 mmHg 79%
    03:00 +1°C° 0 mm 5 mps 725 mmHg 80%
    04:00 +1°C° 0 mm 5 mps 725 mmHg 80%
    05:00 +1°C° 0 mm 5 mps 726 mmHg 81%
    06:00 +1°C° 0 mm 4 mps 726 mmHg 79%
    07:00 +1°C° 0 mm 4 mps 727 mmHg 77%
    08:00 +1°C° 0 mm 4 mps 727 mmHg 75%
    09:00 +1°C° 0 mm 4 mps 727 mmHg 72%
    10:00 +3°C° 0 mm 4 mps 728 mmHg 69%
    11:00 +3°C° 0 mm 4 mps 728 mmHg 66%
    12:00 +3°C° 0 mm 4 mps 729 mmHg 64%
    13:00 +3°C° 0 mm 4 mps 729 mmHg 63%
    14:00 +3°C° 0 mm 4 mps 730 mmHg 61%
    15:00 +3°C° 0 mm 4 mps 730 mmHg 61%
    16:00 +3°C° 0 mm 4 mps 731 mmHg 61%
    17:00 +1°C° 0 mm 4 mps 731 mmHg 61%
    18:00 +1°C° 0 mm 4 mps 732 mmHg 64%
    19:00 +1°C° 0 mm 3 mps 732 mmHg 66%
    20:00 0°C° 0 mm 3 mps 733 mmHg 68%
    21:00 -1°C° 0 mm 2 mps 733 mmHg 71%
    22:00 -2°C° 0 mm 2 mps 733 mmHg 74%
    23:00 -2°C° 0 mm 2 mps 734 mmHg 76%

    Pasado mañana, 23 Abril, Lunes

    Tiempo Temperatura Precipitaciones Viento Presión Humedad
    00:00 -3°C° 0 mm 2 mps 734 mmHg 78%
    01:00 -3°C° 0 mm 2 mps 735 mmHg 80%
    02:00 -4°C° 0 mm 2 mps 735 mmHg 82%
    03:00 -4°C° 0 mm 2 mps 735 mmHg 82%
    04:00 -4°C° 0 mm 2 mps 736 mmHg 82%
    05:00 -4°C° 0 mm 2 mps 736 mmHg 82%
    06:00 -2°C° 0 mm 2 mps 736 mmHg 72%
    07:00 -1°C° 0 mm 3 mps 737 mmHg 62%
    08:00 +1°C° 0 mm 3 mps 737 mmHg 52%
    09:00 +2°C° 0 mm 3 mps 737 mmHg 48%
    10:00 +3°C° 0 mm 3 mps 737 mmHg 44%
    11:00 +4°C° 0 mm 3 mps 737 mmHg 40%
    12:00 +4°C° 0 mm 3 mps 737 mmHg 39%
    13:00 +5°C° 0 mm 3 mps 737 mmHg 38%
    14:00 +7°C° 0 mm 3 mps 737 mmHg 37%
    15:00 +6°C° 0 mm 2 mps 737 mmHg 39%
    16:00 +6°C° 0 mm 2 mps 736 mmHg 41%
    17:00 +6°C° 0 mm 2 mps 736 mmHg 43%
    18:00 +4°C° 0 mm 2 mps 736 mmHg 50%
    19:00 +3°C° 0 mm 1 mps 736 mmHg 58%
    20:00 +1°C° 0 mm 1 mps 737 mmHg 65%
    21:00 0°C° 0 mm 0 mps 737 mmHg 67%
    22:00 -1°C° 0 mm 0 mps 737 mmHg 68%
    23:00 -1°C° 0 mm 0 mps 737 mmHg 69%

    24 Abril, Martes

    Tiempo Temperatura Precipitaciones Viento Presión Humedad
    00:00 -1°C° 0 mm 0 mps 736 mmHg 70%
    01:00 0°C° 0 mm 1 mps 736 mmHg 70%
    02:00 0°C° 0 mm 1 mps 736 mmHg 70%
    03:00 0°C° 0 mm 1 mps 736 mmHg 70%
    04:00 0°C° 0 mm 1 mps 736 mmHg 69%
    05:00 0°C° 0 mm 1 mps 736 mmHg 69%
    06:00 +1°C° 0 mm 2 mps 736 mmHg 62%
    07:00 +3°C° 0 mm 2 mps 735 mmHg 54%
    08:00 +4°C° 0 mm 3 mps 735 mmHg 47%
    09:00 +5°C° 0 mm 3 mps 735 mmHg 44%
    10:00 +8°C° 0 mm 3 mps 735 mmHg 42%
    11:00 +9°C° 0 mm 3 mps 734 mmHg 39%
    12:00 +10°C° 0 mm 3 mps 734 mmHg 40%
    13:00 +10°C° 0 mm 4 mps 734 mmHg 41%
    14:00 +11°C° 0 mm 4 mps 733 mmHg 42%
    15:00 +10°C° 0 mm 3 mps 733 mmHg 48%
    16:00 +10°C° 0 mm 3 mps 732 mmHg 53%
    17:00 +9°C° 0 mm 3 mps 732 mmHg 59%
    18:00 +8°C° 0,1 mm 3 mps 732 mmHg 67%
    19:00 +7°C° 0,1 mm 3 mps 731 mmHg 74%
    20:00 +5°C° 0,1 mm 3 mps 731 mmHg 82%
    21:00 +5°C° 0,1 mm 3 mps 731 mmHg 86%
    22:00 +5°C° 0,1 mm 3 mps 730 mmHg 89%
    23:00 +4°C° 0,1 mm 3 mps 730 mmHg 92%

    25 Abril, Miércoles

    Tiempo Temperatura Precipitaciones Viento Presión Humedad
    00:00 +4°C° 0,1 mm 3 mps 730 mmHg 93%
    01:00 +4°C° 0,1 mm 3 mps 730 mmHg 94%
    02:00 +4°C° 0,1 mm 3 mps 729 mmHg 95%
    03:00 +4°C° 0,1 mm 3 mps 729 mmHg 95%
    04:00 +5°C° 0,1 mm 3 mps 729 mmHg 94%
    05:00 +5°C° 0,1 mm 3 mps 728 mmHg 94%
    06:00 +5°C° 0,4 mm 3 mps 728 mmHg 91%
    07:00 +5°C° 0,4 mm 4 mps 727 mmHg 89%
    08:00 +6°C° 0,4 mm 4 mps 727 mmHg 87%
    09:00 +6°C° 0,8 mm 4 mps 726 mmHg 87%
    10:00 +6°C° 0,8 mm 4 mps 726 mmHg 87%
    11:00 +6°C° 0,8 mm 4 mps 726 mmHg 88%
    12:00 +7°C° 0,3 mm 4 mps 726 mmHg 81%
    13:00 +8°C° 0,3 mm 4 mps 726 mmHg 74%
    14:00 +9°C° 0,3 mm 5 mps 726 mmHg 67%
    15:00 +8°C° 0,3 mm 4 mps 726 mmHg 69%
    16:00 +8°C° 0,3 mm 4 mps 726 mmHg 70%
    17:00 +7°C° 0,3 mm 4 mps 726 mmHg 72%
    18:00 +6°C° 0,2 mm 4 mps 727 mmHg 77%
    19:00 +5°C° 0,2 mm 4 mps 727 mmHg 82%
    20:00 +4°C° 0,2 mm 3 mps 727 mmHg 88%
    21:00 +4°C° 0,2 mm 3 mps 728 mmHg 90%
    22:00 +4°C° 0,2 mm 3 mps 728 mmHg 91%
    23:00 +4°C° 0,2 mm 3 mps 728 mmHg 93%

    26 Abril, Jueves

    Tiempo Temperatura Precipitaciones Viento Presión Humedad
    00:00 +4°C° 0,1 mm 3 mps 728 mmHg 93%
    01:00 +4°C° 0,1 mm 3 mps 729 mmHg 93%
    02:00 +4°C° 0,1 mm 3 mps 729 mmHg 92%
    03:00 +4°C° 0 mm 3 mps 729 mmHg 93%
    04:00 +3°C° 0 mm 3 mps 729 mmHg 93%
    05:00 +3°C° 0 mm 3 mps 729 mmHg 94%
    06:00 +3°C° 0 mm 3 mps 730 mmHg 91%
    07:00 +4°C° 0 mm 3 mps 730 mmHg 89%
    08:00 +5°C° 0 mm 3 mps 730 mmHg 86%
    09:00 +5°C° 0 mm 3 mps 730 mmHg 82%
    10:00 +7°C° 0 mm 3 mps 730 mmHg 78%
    11:00 +8°C° 0 mm 3 mps 730 mmHg 74%
    12:00 +8°C° 0 mm 3 mps 730 mmHg 72%
    13:00 +9°C° 0 mm 3 mps 730 mmHg 71%
    14:00 +9°C° 0 mm 3 mps 730 mmHg 69%
    15:00 +9°C° 0 mm 3 mps 730 mmHg 70%
    16:00 +8°C° 0 mm 2 mps 729 mmHg 70%
    17:00 +8°C° 0 mm 2 mps 729 mmHg 70%
    18:00 +7°C° 0 mm 2 mps 729 mmHg 76%
    19:00 +6°C° 0 mm 2 mps 729 mmHg 81%
    20:00 +6°C° 0 mm 1 mps 729 mmHg 87%
    21:00 +6°C° 0 mm 1 mps 729 mmHg 89%
    22:00 +6°C° 0 mm 1 mps 729 mmHg 92%
    23:00 +5°C° 0 mm 1 mps 729 mmHg 94%
    Mostrar más